User: anonymous   Login
Location: ???????
(55.4362°N, 38.1183°E)
Time: 11:05:41
(UTC+00:00)
Language:

METEOR M2 - Orbit

View from above orbital plane
View from above orbital plane
View from above satellite
View from above satellite

Ground track
Ground track

The orbit data is extracted from the following two-line orbital elements,

1 40069U 14037A   21335.13932818 -.00000036  00000-0  26863-5 0  9993
2 40069  98.4476 356.8486 0005887 166.9736 193.1598 14.20692213383702
Epoch (UTC): 01 December 2021 03:20:37
Eccentricity: 0.0005887
inclination: 98.4476°
perigee height: 819 km
apogee height: 827 km
right ascension of ascending node: 356.8486°
argument of perigee: 166.9736°
revolutions per day: 14.20692213
mean anomaly at epoch: 193.1598°
orbit number at epoch: 38370

The dashed part of the orbit path shows where the satellite is in the earth's shadow,  

DLR